Imperial, CA

10:19 AM PDT on May 23, 2018 (GMT -0700)
Imperial County

Weather History for KIPL - October, 2011

Change the Weather History Date:

Wednesday, October 26, 2011

  Actual Average Record
Temperature  
Mean Temperature 72 °F -  
Max Temperature 84 °F 86 °F 97 °F (1965)
Min Temperature 62 °F 57 °F 44 °F (1971)
Cooling Degree Days 8    
Growing Degree Days 22 (Base 50)    
Moisture  
Dew Point 36 °F    
Average Humidity 33    
Maximum Humidity 58    
Minimum Humidity 10    
Precipitation  
Precipitation 0.00 in - - ()
Sea Level Pressure  
Sea Level Pressure 29.89 in    
Wind  
Wind Speed 14 mph (NW)    
Max Wind Speed 20 mph    
Max Gust Speed 26 mph    
Visibility 10 miles    
Events      
Averages and records for this station are not official NWS values.
T = Trace of Precipitation, MM = Missing Value Source: NWS Daily Summary

Daily Weather History Graph

Daily Weather History Graph

Search for Another Location

Airport or City:

Astronomy

Oct. 26, 2011 Rise Set
Actual Time 6:54 AM PDT 5:57 PM PDT
Civil Twilight 6:29 AM PDT 6:22 PM PDT
Nautical Twilight 6:00 AM PDT 6:51 PM PDT
Astronomical Twilight 5:32 AM PDT 7:19 PM PDT
Moon 6:45 AM PDT (10/26) 5:47 PM PDT (10/26)
Length of Visible Light 11h 52m
Length of Day
11h 02m
Waning Crescent, 0% of the Moon is Illuminated
Oct 26
Waning Crescent
Oct 26
New
Nov 2
First Quarter
Nov 10
Full
Nov 18
Last Quarter

Hourly Weather History & Observations

Time (PDT) Temp. Dew Point Humidity Pressure Visibility Wind Dir Wind Speed Gust Speed Precip Events Conditions
1:53 AM 66.0 °F 48.0 °F 52% 29.83 in 10.0 mi West 19.6 mph - N/A   Clear
2:53 AM 66.0 °F 48.0 °F 52% 29.83 in 10.0 mi West 18.4 mph 26.5 mph N/A   Clear
3:53 AM 64.4 °F 48.2 °F 56% 29.83 in 10.0 mi West 13.8 mph 23.0 mph N/A   Clear
4:53 AM 63.0 °F 48.0 °F 58% 29.84 in 10.0 mi WNW 9.2 mph - N/A   Clear
5:53 AM 63.0 °F 46.9 °F 56% 29.86 in 10.0 mi West 12.7 mph - N/A   Clear
6:53 AM 63.0 °F 46.0 °F 54% 29.87 in 10.0 mi West 12.7 mph - N/A   Clear
7:53 AM 64.4 °F 46.4 °F 52% 29.89 in 10.0 mi West 13.8 mph - N/A   Clear
8:53 AM 69.1 °F 46.0 °F 44% 29.91 in 10.0 mi West 12.7 mph - N/A   Clear
9:53 AM 73.9 °F 44.1 °F 34% 29.92 in 10.0 mi West 16.1 mph 23.0 mph N/A   Clear
10:53 AM 77.0 °F 45.0 °F 32% 29.92 in 10.0 mi WNW 8.1 mph 18.4 mph N/A   Clear
11:53 AM 79.0 °F 41.0 °F 26% 29.91 in 10.0 mi NNW 13.8 mph 20.7 mph N/A   Clear
12:53 PM 81.0 °F 37.9 °F 21% 29.89 in 10.0 mi NNW 12.7 mph 20.7 mph N/A   Clear
1:53 PM 82.0 °F 37.0 °F 20% 29.87 in 10.0 mi NW 12.7 mph 18.4 mph N/A   Clear
2:53 PM 82.9 °F 30.9 °F 15% 29.86 in 10.0 mi NNW 17.3 mph 21.9 mph N/A   Clear
3:53 PM 82.9 °F 30.0 °F 15% 29.86 in 10.0 mi NNW 13.8 mph 24.2 mph N/A   Clear
4:53 PM 81.0 °F 18.0 °F 10% 29.86 in 10.0 mi NNW 17.3 mph 26.5 mph N/A   Clear
5:53 PM 73.9 °F 23.0 °F 15% 29.86 in 9.0 mi North 15.0 mph - N/A   Clear
6:53 PM 71.1 °F 18.0 °F 13% 29.90 in 6.0 mi NNW 5.8 mph - N/A   Haze
7:53 PM 66.0 °F 32.0 °F 28% 29.91 in 10.0 mi NNW 6.9 mph - N/A   Clear
8:53 PM 69.1 °F 28.9 °F 22% 29.94 in 10.0 mi NNW 8.1 mph - N/A   Clear
9:53 PM 63.0 °F 23.0 °F 22% 29.95 in 10.0 mi NW 9.2 mph - N/A   Clear
10:53 PM 64.0 °F 23.0 °F 21% 29.96 in 10.0 mi North 10.4 mph - N/A   Clear
11:53 PM 62.1 °F 30.0 °F 30% 29.98 in 10.0 mi NNW 4.6 mph - N/A   Clear